Location: Chin
(49.7667°N, 112.4500°W)
Time: 10:52:52
(UTC+00:00)

Envisat - Pass Details

Date: 01 December 2021
Orbit: 764 x 766 km, 98.2° (Epoch: 25 January)

Event Time Altitude Azimuth Distance (km) Brightness Sun altitude
Rises 00:19:11 0° 191° (S) 3,220 6.8 -7.4°
Reaches altitude 10° 00:21:41 10° 201° (SSW) 2,299 6.2 -7.8°
Maximum altitude 00:26:15 33° 265° (W) 1,265 5.0 -8.5°
Drops below altitude 10° 00:30:51 10° 329° (NNW) 2,316 5.6 -9.2°
Sets 00:33:24 0° 339° (NNW) 3,247 6.2 -9.5°
